This is the latest recevied weather packets stored in our database for station/object KG5TTF. If no packets are shown the sender has not sent any weather packets the latest 10 day(s).
| Time | Temp. | Humidity | Pressure | Rain* | Wind** | Luminosity | Snow |
|---|---|---|---|---|---|---|---|
| 1777801197 | 8.89° C | 34% | 1022.1 hPa | 0 mm | - | 0 W/m² | - |
| 1777800895 | 8.33° C | 35% | 1022.1 hPa | 0 mm | - | 0 W/m² | - |
| 1777800590 | 8.89° C | 35% | 1022.1 hPa | 0 mm | - | 0 W/m² | - |
| 1777800287 | 8.89° C | 35% | 1022 hPa | 0 mm | - | 0 W/m² | - |
| 1777799983 | 8.33° C | 36% | 1021.9 hPa | 0 mm | - | 0 W/m² | - |
| 1777799680 | 7.78° C | 37% | 1022.2 hPa | 0 mm | - | 0 W/m² | - |
| 1777799376 | 7.78° C | 37% | 1022.1 hPa | 0 mm | - | 0 W/m² | - |
| 1777799072 | 7.78° C | 36% | 1022.2 hPa | 0 mm | - | 0 W/m² | - |
| 1777798768 | 7.78° C | 37% | 1022.1 hPa | 0 mm | - | 0 W/m² | - |
| 1777798464 | 7.78° C | 36% | 1021.9 hPa | 0 mm | - | 0 W/m² | - |
| 1777798161 | 8.33° C | 36% | 1021.9 hPa | 0 mm | - | 0 W/m² | - |
| 1777797859 | 8.33° C | 35% | 1021.9 hPa | 0 mm | - | 0 W/m² | - |
| 1777797556 | 8.33° C | 35% | 1022.1 hPa | 0 mm | - | 0 W/m² | - |
| 1777797253 | 8.33° C | 34% | 1021.9 hPa | 0 mm | - | 0 W/m² | - |
| 1777796949 | 8.33° C | 34% | 1021.9 hPa | 0 mm | - | 0 W/m² | - |
| 1777796647 | 8.33° C | 34% | 1021.9 hPa | 0 mm | - | 0 W/m² | - |
| 1777796342 | 8.89° C | 34% | 1022 hPa | 0 mm | - | 0 W/m² | - |
| 1777796038 | 8.89° C | 33% | 1022.1 hPa | 0 mm | - | 0 W/m² | - |
| 1777795735 | 8.33° C | 33% | 1022.2 hPa | 0 mm | - | 0 W/m² | - |
| 1777795432 | 8.89° C | 33% | 1022.1 hPa | 0 mm | - | 0 W/m² | - |
| 1777795128 | 8.89° C | 32% | 1022.1 hPa | 0 mm | - | 0 W/m² | - |
| 1777794824 | 8.89° C | 32% | 1022.2 hPa | 0 mm | - | 0 W/m² | - |
| 1777794521 | 9.44° C | 31% | 1022 hPa | 0 mm | - | 0 W/m² | - |
| 1777794216 | 8.89° C | 31% | 1022.2 hPa | 0 mm | - | 0 W/m² | - |
| 1777793913 | 9.44° C | 31% | 1022.2 hPa | 0 mm | - | 0 W/m² | - |
* Rain latest hour (hover to see other rain measurements)
** Current wind speed in m/s (hover to see current wind gust speed)